DECAYED

STARLINK-11202, 60245 (Decayed)

Orbit data source: Space-Track

STARLINK-11202, 60245 was a payload satellite owned by SpaceX/Seattle (US) in LEO that was launched on Fri, 12 Jul 2024 UTC via an FALCON 9 launch vehicle from the Air Force Western Test Range (AFWTR). Payload-class satellites include a variety of spacecraft equipped with specific instruments for various scientific and technological missions. These include communications satellites like Starlink; space stations such as the ISS; scientific satellites like the Hubble; Earth observation satellites from companies like Planet Labs, Umbra, and HawkEye 360; GPS; miniature CubeSats for education and research; and military/defense satellites.

Not visible in the next 10 days
Identifier
60245, 2024-129B
Orbit
Decayed
Country
Flag of USUS
Related business
Manufacturer
SpaceX/Seattle
Mission
Decayed Commercial Communications
Bus & Motor
STARLINK V2MD, Unknown motor
Mass
960 kg wet, ~910 kg dry
Launch date (UTC)
2024-07-12 (1 year ago)
Launch vehicle
FALCON 9
Launch site
Air Force Western Test Range (AFWTR)
Object type
Payload
Rocket body
Debris
Shape & HBR
Box + 2 Pan, 14.5 m
Radar Cross Section
36.964 m², Medium (>0.1 m² and < 1m²)

Expand to show TLE details & history
Last TLE update: 1 year ago

TLE from 1 year ago
0 STARLINK-11202
1 60245U 24129B   24202.57221789  .18812113  12686-4  16820-3 0  9998
2 60245  53.1110  14.6183 0012251  81.7228  32.4641 16.50784614  2152
Epoch: 2024-07-20T13:43Z
TLE epoch observation values (Epoch: 2024-07-20T13:43:59.625Z)
Latitude
46.96755°
Longitude
-3.2727°
Altitude
135.619 km
Speed
7.835 km/s
True Right ascension
09h 26m 13s
True Declination
46° 46' 46"
Sunlit
Object was in daylight at epoch
Visualization orbit readout
Latitude
Unknown
Longitude
Unknown
Altitude
Unknown
Speed
Unknown
Apparent Right ascension
Unknown
Apparent Declination
Unknown
Sunlit
N/A
Visualization observer readout
Local Sidereal Time
10:17:43
Azimuth
Unknown
Elevation
Unknown
Doppler factor
Unknown
Orbital elements
Apogee altitude
145.53 km
Perigee altitude
129.566 km
Semi-major axis
6,515.685 km
Eccentricity
0.00123
Inclination
53.111°
RAAN
14.6183°
Arg. of periapsis
81.7228°
True anomaly
32.53955°
Mean anomaly
32.4641°
Eccentric anomaly
32.50182°
Mean motion
4.1267 °/min
Orbital period
87.24 mins
BSTAR
0.0001682
Loading maneuver chart data...
Computing Atmospheric mass density...
Loading historical data...
Loading historical data...
Loading historical data...
Loading historical data...
Loading historical data...
Loading historical data...
Loading historical data...
Other satellites on launch #129 in the year 2024 (2024-07-12 UTC)

Documentation

Showing up to 5 results
|